When you browse on this site, cookies collect data to enhance your experience and personalize the content and advertising you see.
Visit our Privacy Policy to learn more. By continuing to use the site, you agree to this use of cookies and data.
  • In Portugal
  • List of Countries
  • For 7 days
  • Water Temperature
  • Weather Map
  • Weather Widgets
  • user-avatar
    Login

    Hourly Weather Konakry

    Today, 22 February, Saturday

    Time Temperature Precipitation Wind Pressure Humidity
    00:00 +27°C° 0 mm 2 mps 754 mmHg 82%
    01:00 +26°C° 0 mm 2 mps 754 mmHg 83%
    02:00 +26°C° 0 mm 2 mps 754 mmHg 84%
    03:00 +26°C° 0 mm 2 mps 754 mmHg 83%
    04:00 +26°C° 0 mm 2 mps 754 mmHg 83%
    05:00 +25°C° 0 mm 1 mps 754 mmHg 83%
    06:00 +27°C° 0 mm 1 mps 754 mmHg 78%
    07:00 +28°C° 0 mm 1 mps 755 mmHg 73%
    08:00 +29°C° 0 mm 1 mps 755 mmHg 69%
    09:00 +31°C° 0 mm 1 mps 755 mmHg 61%
    10:00 +34°C° 0 mm 2 mps 755 mmHg 53%
    11:00 +36°C° 0 mm 2 mps 755 mmHg 45%
    12:00 +36°C° 0 mm 3 mps 754 mmHg 44%
    13:00 +36°C° 0 mm 4 mps 753 mmHg 44%
    14:00 +36°C° 0 mm 4 mps 752 mmHg 43%
    15:00 +35°C° 0 mm 5 mps 752 mmHg 48%
    16:00 +34°C° 0 mm 5 mps 752 mmHg 53%
    17:00 +33°C° 0 mm 5 mps 752 mmHg 58%
    18:00 +30°C° 0 mm 5 mps 753 mmHg 65%
    19:00 +29°C° 0 mm 4 mps 754 mmHg 72%
    20:00 +27°C° 0 mm 3 mps 754 mmHg 79%
    21:00 +27°C° 0 mm 2 mps 754 mmHg 78%
    22:00 +27°C° 0 mm 2 mps 754 mmHg 77%
    23:00 +27°C° 0 mm 2 mps 755 mmHg 77%

    Tomorrow, 23 February, Sunday

    Time Temperature Precipitation Wind Pressure Humidity
    00:00 +27°C° 0 mm 2 mps 754 mmHg 76%
    01:00 +27°C° 0 mm 2 mps 754 mmHg 75%
    02:00 +27°C° 0 mm 2 mps 754 mmHg 75%
    03:00 +27°C° 0 mm 2 mps 754 mmHg 75%
    04:00 +27°C° 0 mm 1 mps 754 mmHg 75%
    05:00 +27°C° 0 mm 1 mps 754 mmHg 75%
    06:00 +28°C° 0 mm 1 mps 755 mmHg 71%
    07:00 +29°C° 0 mm 2 mps 755 mmHg 68%
    08:00 +30°C° 0 mm 2 mps 756 mmHg 65%
    09:00 +31°C° 0 mm 3 mps 756 mmHg 58%
    10:00 +34°C° 0 mm 3 mps 756 mmHg 51%
    11:00 +35°C° 0 mm 4 mps 755 mmHg 44%
    12:00 +35°C° 0 mm 4 mps 755 mmHg 44%
    13:00 +35°C° 0 mm 5 mps 754 mmHg 44%
    14:00 +35°C° 0 mm 5 mps 753 mmHg 45%
    15:00 +34°C° 0 mm 5 mps 753 mmHg 49%
    16:00 +33°C° 0 mm 5 mps 753 mmHg 54%
    17:00 +32°C° 0 mm 5 mps 752 mmHg 58%
    18:00 +29°C° 0 mm 4 mps 753 mmHg 65%
    19:00 +28°C° 0 mm 4 mps 754 mmHg 72%
    20:00 +27°C° 0 mm 4 mps 755 mmHg 79%
    21:00 +27°C° 0 mm 3 mps 755 mmHg 80%
    22:00 +26°C° 0 mm 3 mps 755 mmHg 82%
    23:00 +26°C° 0 mm 2 mps 755 mmHg 84%

    Day after tomorrow, 24 February, Monday

    Time Temperature Precipitation Wind Pressure Humidity
    00:00 +26°C° 0 mm 2 mps 755 mmHg 84%
    01:00 +26°C° 0 mm 2 mps 755 mmHg 84%
    02:00 +25°C° 0 mm 2 mps 755 mmHg 85%
    03:00 +25°C° 0 mm 2 mps 755 mmHg 85%
    04:00 +25°C° 0 mm 2 mps 755 mmHg 85%
    05:00 +25°C° 0 mm 2 mps 754 mmHg 85%
    06:00 +26°C° 0 mm 2 mps 755 mmHg 79%
    07:00 +27°C° 0 mm 2 mps 755 mmHg 73%
    08:00 +29°C° 0 mm 2 mps 756 mmHg 67%
    09:00 +31°C° 0 mm 2 mps 755 mmHg 59%
    10:00 +32°C° 0 mm 2 mps 755 mmHg 51%
    11:00 +35°C° 0 mm 2 mps 755 mmHg 43%
    12:00 +35°C° 0 mm 3 mps 754 mmHg 45%
    13:00 +35°C° 0 mm 4 mps 753 mmHg 47%
    14:00 +35°C° 0 mm 5 mps 752 mmHg 49%
    15:00 +34°C° 0 mm 5 mps 752 mmHg 53%
    16:00 +33°C° 0 mm 5 mps 752 mmHg 57%
    17:00 +32°C° 0 mm 5 mps 752 mmHg 62%
    18:00 +30°C° 0 mm 5 mps 752 mmHg 69%
    19:00 +28°C° 0 mm 4 mps 753 mmHg 75%
    20:00 +27°C° 0 mm 4 mps 754 mmHg 82%
    21:00 +27°C° 0 mm 3 mps 754 mmHg 84%
    22:00 +26°C° 0 mm 3 mps 754 mmHg 85%
    23:00 +26°C° 0 mm 2 mps 754 mmHg 86%

    25 February, Tuesday

    Time Temperature Precipitation Wind Pressure Humidity
    00:00 +26°C° 0 mm 2 mps 754 mmHg 87%
    01:00 +26°C° 0 mm 2 mps 753 mmHg 87%
    02:00 +26°C° 0 mm 2 mps 753 mmHg 88%
    03:00 +25°C° 0 mm 2 mps 753 mmHg 88%
    04:00 +25°C° 0 mm 1 mps 753 mmHg 88%
    05:00 +25°C° 0 mm 1 mps 753 mmHg 88%
    06:00 +26°C° 0 mm 1 mps 753 mmHg 83%
    07:00 +27°C° 0 mm 1 mps 754 mmHg 78%
    08:00 +28°C° 0 mm 2 mps 754 mmHg 72%
    09:00 +31°C° 0 mm 2 mps 754 mmHg 63%
    10:00 +34°C° 0 mm 2 mps 754 mmHg 54%
    11:00 +36°C° 0 mm 3 mps 754 mmHg 45%
    12:00 +36°C° 0 mm 4 mps 753 mmHg 48%
    13:00 +35°C° 0 mm 5 mps 752 mmHg 50%
    14:00 +35°C° 0 mm 6 mps 751 mmHg 53%
    15:00 +34°C° 0 mm 6 mps 751 mmHg 57%
    16:00 +33°C° 0 mm 5 mps 751 mmHg 61%
    17:00 +32°C° 0 mm 5 mps 751 mmHg 65%
    18:00 +30°C° 0 mm 5 mps 751 mmHg 71%
    19:00 +28°C° 0 mm 4 mps 752 mmHg 78%
    20:00 +27°C° 0 mm 4 mps 752 mmHg 85%
    21:00 +27°C° 0 mm 3 mps 753 mmHg 85%
    22:00 +27°C° 0 mm 2 mps 753 mmHg 86%
    23:00 +26°C° 0 mm 1 mps 753 mmHg 86%

    26 February, Wednesday

    Time Temperature Precipitation Wind Pressure Humidity
    00:00 +26°C° 0 mm 1 mps 753 mmHg 87%
    01:00 +26°C° 0 mm 1 mps 753 mmHg 88%
    02:00 +26°C° 0 mm 1 mps 753 mmHg 88%
    03:00 +26°C° 0 mm 1 mps 753 mmHg 89%
    04:00 +26°C° 0 mm 1 mps 753 mmHg 89%
    05:00 +26°C° 0 mm 1 mps 753 mmHg 89%
    06:00 +27°C° 0 mm 1 mps 754 mmHg 85%
    07:00 +27°C° 0 mm 1 mps 754 mmHg 80%
    08:00 +28°C° 0 mm 1 mps 754 mmHg 76%
    09:00 +30°C° 0 mm 1 mps 754 mmHg 68%
    10:00 +32°C° 0 mm 1 mps 754 mmHg 60%
    11:00 +34°C° 0 mm 1 mps 754 mmHg 52%
    12:00 +35°C° 0 mm 3 mps 753 mmHg 52%
    13:00 +35°C° 0 mm 4 mps 752 mmHg 52%
    14:00 +35°C° 0 mm 6 mps 752 mmHg 52%
    15:00 +34°C° 0 mm 6 mps 751 mmHg 57%
    16:00 +33°C° 0 mm 6 mps 751 mmHg 61%
    17:00 +32°C° 0 mm 6 mps 751 mmHg 65%
    18:00 +30°C° 0 mm 5 mps 752 mmHg 72%
    19:00 +29°C° 0 mm 4 mps 752 mmHg 78%
    20:00 +27°C° 0 mm 4 mps 753 mmHg 85%
    21:00 +27°C° 0 mm 3 mps 753 mmHg 86%
    22:00 +27°C° 0 mm 2 mps 754 mmHg 86%
    23:00 +27°C° 0 mm 1 mps 754 mmHg 87%

    27 February, Thursday

    Time Temperature Precipitation Wind Pressure Humidity
    00:00 +26°C° 0 mm 1 mps 754 mmHg 87%
    01:00 +26°C° 0 mm 1 mps 753 mmHg 88%
    02:00 +26°C° 0 mm 1 mps 753 mmHg 88%
    03:00 +26°C° 0 mm 1 mps 753 mmHg 89%
    04:00 +26°C° 0 mm 1 mps 753 mmHg 90%
    05:00 +25°C° 0 mm 2 mps 754 mmHg 90%
    06:00 +27°C° 0 mm 2 mps 754 mmHg 85%
    07:00 +28°C° 0 mm 2 mps 755 mmHg 80%
    08:00 +29°C° 0 mm 2 mps 755 mmHg 74%
    09:00 +31°C° 0 mm 2 mps 755 mmHg 67%
    10:00 +32°C° 0 mm 2 mps 755 mmHg 61%
    11:00 +35°C° 0 mm 2 mps 755 mmHg 54%
    12:00 +35°C° 0 mm 3 mps 754 mmHg 54%
    13:00 +35°C° 0 mm 4 mps 753 mmHg 55%
    14:00 +35°C° 0 mm 5 mps 752 mmHg 55%
    15:00 +34°C° 0 mm 5 mps 752 mmHg 59%
    16:00 +33°C° 0 mm 5 mps 752 mmHg 63%
    17:00 +32°C° 0 mm 5 mps 752 mmHg 66%
    18:00 +30°C° 0 mm 4 mps 753 mmHg 73%
    19:00 +29°C° 0 mm 4 mps 753 mmHg 80%
    20:00 +28°C° 0 mm 3 mps 754 mmHg 87%
    21:00 +28°C° 0 mm 3 mps 754 mmHg 88%
    22:00 +27°C° 0 mm 2 mps 754 mmHg 89%
    23:00 +27°C° 0 mm 2 mps 755 mmHg 89%
    Show more